Location: Monrovia
(34.7865°N, 86.7139°W)
Time: 21:56:57
(UTC+00:00)

Okean 3 - Pass Details

Date: 14 July 2020
Orbit: 576 x 601 km, 82.5° (Epoch: 08 August)

Event Time Altitude Azimuth Distance (km) Brightness Sun altitude
Rises 08:19:35 0° 345° (NNW) 2,800 7.4 -23.7°
Reaches altitude 10° 08:21:52 10° 338° (NNW) 1,899 6.4 -23.4°
Enters shadow 08:24:45 34° 304° (NW) 965 4.4 -23.1°
